Location: Pasadena
(34.1478°N, 118.1436°W)
Time: 14:19:43
(UTC-08:00)

ISS - Pass Details

Date: 24 January 2019
Orbit: 403 x 411 km, 51.6° (Epoch: 20 February)

Event Time Altitude Azimuth Distance (km) Brightness Sun altitude
Rises 17:57:09 0° 249° (WSW) 2,319 2.4 -9.1°
Reaches altitude 10° 17:59:23 10° 261° (W) 1,464 0.6 -9.5°
Maximum altitude 18:02:19 29° 324° (NW) 782 -2.2 -10.1°
Drops below altitude 10° 18:05:15 10° 26° (NNE) 1,475 -1.4 -10.7°
Enters shadow 18:05:34 - 29° (NNE) 1,589 -1.2 -10.7°
